Location: Briis
(48.6240°N, 2.1211°E)
Time: 03:48:10
(UTC+00:00)

Meteor 1-10 Rocket - Pass Details

Date: 25 September 2020
Orbit: 836 x 910 km, 81.3° (Epoch: 22 October)

Event Time Altitude Azimuth Distance (km) Brightness Sun altitude
Exits shadow 03:51:43 28° 220° (SW) 1,611 5.2 -18.8°
Maximum altitude 03:54:42 56° 286° (WNW) 1,065 4.4 -18.3°
Drops below altitude 10° 04:00:32 10° 5° (N) 2,600 7.0 -17.4°
Sets 04:03:05 0° 10° (N) 3,550 7.8 -17.0°
